Location: Asheville, NC
(35.6000°N, 82.5500°W)
Time: 17:15:13
(UTC-04:00)

Vanguard 3 - Pass Details

Date: 08 March 2018
Orbit: 508 x 3264 km, 33.3° (Epoch: 18 June)

Event Time Altitude Azimuth Distance (km) Brightness Sun altitude
Rises 08:19:20 0° 217° (SW) 7,212 11.8 16.8°
Reaches altitude 10° 08:24:46 10° 211° (SSW) 6,177 11.6 17.8°
Maximum altitude 08:41:42 40° 150° (SSE) 3,622 11.5 21.0°
Drops below altitude 10° 08:53:46 10° 88° (E) 4,493 12.2 23.3°
Sets 08:56:58 0° 80° (E) 5,152 12.1 23.9°
